This demonstration page uses our WeatherBlox Daily Observations layout. Learn more.

Left ArrowRight Arrow

Hourly Observations for December 27, 2015

Temp ( °F °C ) Dew Point ( °F °C ) Humidity (%) Winds ( mph kmh ) Pressure ( in mb ) Visibility ( mi km ) Precip ( " mm )
12:58 am 00:58 Cloudy 27 -2.7 24 -4.6 87 87 N 18 30 30.41 1030 10 16 0.00 0.00
1:14 am 01:14 Cloudy 27 -3 23 -5 86 86 NNW 16 26 30.45 1031 10 16 0.00 0.00
1:40 am 01:40 Cloudy 27 -3 23 -5 86 86 NNW 17 28 30.45 1031 10 16 0.00 0.00
1:58 am 01:58 Cloudy 26 -3.6 22 -5.6 86 86 N 15 24 30.42 1030 10 16 0.00 0.00
2:05 am 02:05 Cloudy 25 -4 21 -6 86 86 N 17 28 30.45 1031 10 16 0.00 0.00
2:39 am 02:39 Cloudy 25 -4 21 -6 86 86 N 14 22 30.48 1032 10 16 0.00 0.00
2:58 am 02:58 Cloudy 24 -4.4 20 -6.4 86 86 NNW 17 28 30.45 1031 10 16 0.00 0.00
3:17 am 03:17 Cloudy 25 -4 21 -6 86 86 NNW 15 24 30.50 1033 10 16 0.00 0.00
3:58 am 03:58 Cloudy 24 -4.4 21 -6.3 87 87 N 13 20 30.48 1032 10 16 0.00 0.00
4:23 am 04:23 Cloudy 25 -4 21 -6 86 86 N 12 19 30.50 1033 10 16 0.00 0.00
4:58 am 04:58 Cloudy 24 -4.3 21 -6.2 87 87 N 10 17 30.48 1032 10 16 0.00 0.00
5:32 am 05:32 Cloudy 25 -4 21 -6 86 86 N 15 24 30.50 1033 10 16 0.00 0.00
5:38 am 05:38 Cloudy 25 -4 21 -6 86 86 N 13 20 30.50 1033 10 16 0.00 0.00
5:50 am 05:50 Cloudy 25 -4 21 -6 86 86 N 16 26 30.53 1034 10 16 0.00 0.00
5:58 am 05:58 Cloudy 24 -4.4 21 -6.3 87 87 N 13 20 30.49 1033 10 16 0.00 0.00
6:36 am 06:36 Cloudy 23 -5 19 -7 86 86 N 13 20 30.53 1034 10 16 0.00 0.00
6:58 am 06:58 Cloudy 22 -5.3 20 -6.8 89 89 NNW 14 22 30.50 1033 10 16 0.00 0.00
7:11 am 07:11 Cloudy 23 -5 19 -7 86 86 NNW 12 19 30.53 1034 10 16 0.00 0.00
7:58 am 07:58 Cloudy 21 -6.1 19 -7.4 91 91 NNW 15 24 30.52 1033 10 16 0.00 0.00
8:58 am 08:58 Cloudy 20 -6.5 18 -7.9 90 90 NNW 16 26 30.52 1033 10 16 0.00 0.00
9:50 am 09:50 Cloudy 19 -7 16 -9 86 86 NNW 10 17 30.56 1035 10 16 0.00 0.00
9:58 am 09:58 Cloudy 20 -6.7 17 -8.5 87 87 NNW 10 17 30.53 1034 10 16 0.00 0.00
10:25 am 10:25 Cloudy 19 -7 16 -9 86 86 N 15 24 30.53 1034 10 16 0.00 0.00
10:55 am 10:55 Cloudy 19 -7 14 -10 79 79 N 9 15 30.56 1035 10 16 0.00 0.00
10:58 am 10:58 Cloudy 19 -7.4 15 -9.6 84 84 N 12 19 30.53 1034 10 16 0.00 0.00
11:16 am 11:16 Cloudy 19 -7 14 -10 79 79 N 13 20 30.59 1036 10 16 0.00 0.00
11:22 am 11:22 Cloudy with Drizzle 18 -8 14 -10 86 86 N 12 19 30.62 1037 7 11 0.00 0.00
11:32 am 11:32 Cloudy 19 -7 14 -10 79 79 N 13 20 30.59 1036 8 13 0.00 0.00
11:58 am 11:58 Cloudy 20 -6.7 15 -9.4 81 81 NNW 9 15 30.55 1035 10 16 0.00 0.00
12:23 pm 12:23 Partly Cloudy 21 -6 16 -9 80 80 NNW 13 20 30.59 1036 10 16 0.00 0.00
12:58 pm 12:58 Sunny 22 -5.8 15 -9.4 76 76 NNW 12 19 30.54 1034 10 16 0.00 0.00
1:58 pm 13:58 Sunny 23 -5.1 14 -10.1 68 68 N 13 20 30.51 1033 10 16 0.00 0.00
2:58 pm 14:58 Sunny 22 -5.6 12 -11 66 66 N 15 24 30.49 1033 10 16 0.00 0.00
3:58 pm 15:58 Sunny 21 -6.3 12 -11 70 70 N 14 22 30.49 1033 10 16 0.00 0.00
4:58 pm 16:58 Sunny 19 -7.3 12 -11.2 74 74 N 8 13 30.45 1031 10 16 0.00 0.00
5:58 pm 17:58 Mostly Cloudy 19 -7.3 11 -11.4 73 73 N 8 13 30.48 1032 10 16 0.00 0.00
6:58 pm 18:58 Clear 18 -7.8 11 -11.9 73 73 N 9 15 30.46 1032 10 16 0.00 0.00
7:58 pm 19:58 Clear 17 -8.1 10 -12.1 73 73 N 13 20 30.47 1032 10 16 0.00 0.00
8:58 pm 20:58 Clear 17 -8.3 8 -13.1 69 69 N 9 15 30.47 1032 10 16 0.00 0.00
9:58 pm 21:58 Clear 16 -8.8 8 -13.3 70 70 N 8 13 30.43 1030 10 16 0.00 0.00
10:58 pm 22:58 Clear 15 -9.2 7 -13.9 69 69 N 10 17 30.43 1030 10 16 0.00 0.00
11:58 pm 23:58 Mostly Cloudy 15 -9.3 7 -13.7 71 71 N 10 17 30.41 1030 10 16 0.00 0.00

Powered by AerisWeather